• Join FlightAware (Why Join?)
  • Login
  • US Flag 
06:20AM EST


 

Airport Tracker/Info


-or-


 

Live Flight TrackerFlight Track Log ✈ JIA2335 ✈ 29-Apr-2013 ✈ KPHL - KDAY

Flight Track Log - Related Links

Times and Time Zones

All times are in EDT time to prevent confusion due to time zone crossing. See the JIA2335 flight status page for this flight to view local times or setup timezone preferences in your user account.

Time Position Orientation Groundspeed Altitude Reporting Facility
EDT Latitude Longitude Course Direction KTS MPH feet Rate Location/Type
09:26AM 39.8833 -75.2167 270° West 157 181 900  Level Philadelphia TRACON
09:26AM 39.8833 -75.1833 90° East 165 190 1,700 2,100 Climbing Philadelphia TRACON
09:27AM 39.9167 -75.1333 49° Northeast 247 284 3,900 2,580 Climbing Philadelphia TRACON
09:28AM 39.9000 -75.5722 270° West  Level FlightAware Approximate
09:28AM 39.9667 -75.1833 323° Northwest 259 298 6,700  Level Philadelphia TRACON
09:29AM 39.9132 -75.6876 258° West  Level FlightAware Approximate
09:29AM 39.9667 -75.2833 270° West 255 293 9,700  Level Philadelphia TRACON
09:30AM 39.9000 -75.8045 270° West  Level FlightAware Approximate
09:31AM 39.9000 -75.9232 270° West  Level FlightAware Approximate
09:31AM 39.9467 -75.4253 260° West 279 321 10,000  Level New York Center
09:32AM 39.9392 -75.5114 264° West 274 315 10,000 300 Level New York Center
09:33AM 39.9244 -75.6161 260° West 274 315 10,700 840 Climbing New York Center
09:34AM 39.9164 -75.7075 263° West 279 321 11,700 1,620 Climbing New York Center
09:35AM 39.9139 -75.8183 268° West 284 327 14,000 1,860 Climbing New York Center
09:36AM 39.9139 -75.9131 270° West 289 333 15,400 1,740 Climbing New York Center
09:37AM 39.9128 -76.0350 269° West 295 339 17,600 1,680 Climbing New York Center
09:38AM 39.9097 -76.1456 268° West 300 345 18,800 1,320 Climbing New York Center
09:39AM 39.9086 -76.2592 269° West 305 351 20,300 1,380 Climbing New York Center
09:40AM 39.9136 -76.3733 273° West 316 364 21,700 1,380 Climbing New York Center
09:41AM 39.9186 -76.4903 273° West 322 371 23,100 1,320 Climbing New York Center
09:42AM 39.9233 -76.6069 273° West 327 376 24,400 1,260 Climbing New York Center
09:43AM 39.9297 -76.7267 274° West 332 382 25,700 1,140 Climbing New York Center
09:44AM 39.9339 -76.8489 273° West 332 382 26,800 1,140 Climbing New York Center
09:45AM 39.9403 -76.9658 274° West 332 382 28,100 1,140 Climbing New York Center
09:46AM 39.9425 -77.0853 271° West 332 382 29,100 1,020 Climbing New York Center
09:47AM 39.9467 -77.1994 273° West 332 382 30,200 960 Climbing New York Center
09:48AM 39.9528 -77.3139 274° West 332 382 31,100 540 Climbing New York Center
09:50AM 39.9628 -77.5736 273° West 330 380 32,000 240 Climbing Cleveland Center
09:51AM 39.9681 -77.6953 273° West 330 380 32,000  Level Cleveland Center
09:52AM 39.9708 -77.8144 272° West 330 380 32,000  Level Cleveland Center
09:53AM 39.9739 -77.9336 272° West 330 380 32,000  Level Cleveland Center
09:54AM 39.9786 -78.0553 273° West 330 380 32,000  Level Cleveland Center
09:55AM 39.9814 -78.1772 272° West 330 380 32,000  Level Cleveland Center
09:56AM 39.9797 -78.3019 269° West 330 380 32,000  Level Cleveland Center
09:57AM 39.9819 -78.4208 271° West 330 380 32,000  Level Cleveland Center
09:58AM 39.9842 -78.5428 271° West 335 386 32,000  Level Cleveland Center
09:59AM 39.9864 -78.6675 271° West 340 391 32,000  Level Cleveland Center
10:00AM 39.9906 -78.7892 273° West 340 391 32,000  Level Cleveland Center
10:01AM 39.9925 -78.9139 271° West 345 397 32,000 -180 Level Cleveland Center
10:02AM 39.9986 -79.0519 273° West 350 403 31,700 -600 Descending Cleveland Center
10:03AM 40.0064 -79.1844 274° West 350 403 30,900 -900 Descending Cleveland Center
10:04AM 40.0144 -79.3253 274° West 374 430 30,000 -480 Descending Cleveland Center
10:05AM 40.0222 -79.4689 274° West 394 453 30,000  Level Cleveland Center
10:06AM 40.0297 -79.6069 274° West 394 453 30,000  Level Cleveland Center
10:07AM 40.0369 -79.7425 274° West 389 448 30,000  Level Cleveland Center
10:08AM 40.0442 -79.8781 274° West 384 442 30,000  Level Cleveland Center
10:09AM 40.0533 -80.0108 275° West 379 436 30,000  Level Cleveland Center
10:10AM 40.0600 -80.1408 274° West 373 429 30,000  Level Cleveland Center
10:11AM 40.0667 -80.2711 274° West 368 423 30,000  Level Cleveland Center
10:12AM 40.0711 -80.4014 273° West 363 418 30,000  Level Cleveland Center
10:13AM 40.0775 -80.5289 274° West 363 418 30,000  Level Cleveland Center
10:14AM 40.0839 -80.6592 274° West 363 418 30,000 -420 Level Cleveland Center
10:15AM 40.0900 -80.7919 273° West 363 418 29,200 -900 Descending Cleveland Center
10:16AM 40.0958 -80.9358 273° West 375 432 28,300 -600 Descending Cleveland Center
10:17AM 40.1014 -81.0769 273° West 393 452 28,000 -180 Descending Cleveland Center
10:18AM 40.1028 -81.1803 271° West 399 459 28,000  Level Indianapolis Center
10:19AM 40.1078 -81.3214 273° West 388 447 28,000  Level Indianapolis Center
10:20AM 40.1136 -81.4628 273° West 386 444 28,000  Level Indianapolis Center
10:21AM 40.1194 -81.6014 273° West 380 437 28,000  Level Indianapolis Center
10:22AM 40.1244 -81.7397 273° West 378 435 28,000  Level Indianapolis Center
10:23AM 40.1292 -81.8908 272° West 376 433 28,000 -480 Level Indianapolis Center
10:24AM 40.1342 -82.0308 273° West 382 440 27,100 -1,020 Descending Indianapolis Center
10:25AM 40.1392 -82.1775 273° West 399 459 26,000 -1,020 Descending Indianapolis Center
10:26AM 40.1442 -82.3156 273° West 381 438 25,000 -1,020 Descending Indianapolis Center
10:27AM 40.1483 -82.4497 272° West 370 426 24,000 -1,020 Descending Indianapolis Center
10:28AM 40.1525 -82.5808 272° West 360 414 23,000 -1,080 Descending Indianapolis Center
10:29AM 40.1589 -82.7294 273° West 350 403 21,800 -1,200 Descending Indianapolis Center
10:30AM 40.1661 -82.8547 274° West 344 396 20,600 -1,500 Descending Indianapolis Center
10:31AM 40.1731 -82.9847 274° West 355 409 18,800 -1,740 Descending Indianapolis Center
10:32AM 40.1789 -83.1111 273° West 349 402 17,100 -1,800 Descending Indianapolis Center
10:33AM 40.1828 -83.1819 274° West 325 374 16,100 -1,680 Descending Indianapolis Center
10:33AM 40.1853 -83.2283 274° West 326 375 15,400 -1,740 Descending Indianapolis Center
10:34AM 40.1900 -83.3464 273° West 313 360 13,700 -1,800 Descending Indianapolis Center
10:35AM 40.1947 -83.4564 273° West 301 346 12,000 -1,260 Descending Indianapolis Center
10:36AM 40.2003 -83.5756 274° West 291 335 11,000 -780 Descending Indianapolis Center
10:37AM 40.1797 -83.6694 254° West 271 312 10,300 -1,140 Descending Indianapolis Center
10:38AM 40.1444 -83.7422 238° Southwest 269 310 9,000 -1,680 Descending Indianapolis Center
10:39AM 40.1031 -83.8214 236° Southwest 268 308 7,300 -1,620 Descending Indianapolis Center
10:39AM 40.0972 -83.8319 234° Southwest 268 308 7,000 -1,740 Descending Indianapolis Center
10:40AM 40.0614 -83.9006 236° Southwest 253 291 5,600 -1,500 Descending Indianapolis Center
10:40AM 40.0567 -83.9089 233° Southwest 262 302 5,500 -1,020 Descending Indianapolis Center
10:41AM 40.0222 -83.9747 236° Southwest 248 285 4,600 -1,200 Descending Indianapolis Center
10:41AM 40.0117 -83.9961 237° Southwest 254 292 4,300 -840 Descending Indianapolis Center
10:42AM 39.9878 -84.0411 235° Southwest 213 245 3,800 -720 Descending Indianapolis Center
10:42AM 39.9778 -84.0592 234° Southwest 232 267 3,600 -720 Descending Indianapolis Center